NIMBUS 2 DEB, 59977

Orbit data source: Space-Track

NIMBUS 2 DEB, 59977 is space debris in SSO originally from a launch on Sun, 15 May 1966 UTC launched from the Air Force Western Test Range (AFWTR). Debris objects in space refer to the collection of defunct objects orbiting the Earth. Examples of debris include non-operational satellites, rocket bodies, and fragments generated from explosions, collisions, or faulty payload assembly.

Loading next visibility...
Identifier
59977, 1966-040CG
Orbit
SSO
Country
Flag of USUS
Related business
Manufacturer
Unknown
Mission
Spacecraft
Bus & Motor
Unknown
Mass
Unknown
Launch date (UTC)
1966-05-15 (60 years ago)
Launch vehicle
Unknown
Launch site
Air Force Western Test Range (AFWTR)
Object type
Payload
Rocket body
Debris
Shape & HBR
Unknown shape, 0.1 m
Radar Cross Section
Small (<0.1 m²)

Expand to show TLE details & history
Last TLE update: 18 hours ago

TLE from 18 hours ago
0 NIMBUS 2 DEB
1 59977U 66040CG  26130.19682324  .00001049  00000-0  19715-2 0  9999
2 59977 100.3048 304.7183 0047783 297.1436  62.4823 13.40926307453161
Epoch: 2026-05-10T04:43Z
TLE epoch observation values (Epoch: 2026-05-10T04:43:25.527Z)
Latitude
-0.00006°
Longitude
5.85858°
Altitude
1,092.192 km
Speed
7.314 km/s
True Right ascension
20h 18m 52s
True Declination
0° 00' 00"
Sunlit
Object was in daylight at epoch
Visualization orbit readout
Latitude
Unknown
Longitude
Unknown
Altitude
Unknown
Speed
Unknown
Apparent Right ascension
Unknown
Apparent Declination
Unknown
Sunlit
N/A
Visualization observer readout
Local Sidereal Time
06:59:54
Azimuth
Unknown
Elevation
Unknown
Doppler factor
Unknown
Orbital elements
Apogee altitude
1,138.924 km
Perigee altitude
1,067.428 km
Semi-major axis
7,481.313 km
Eccentricity
0.00478
Inclination
100.3048°
RAAN
304.7183°
Arg. of periapsis
297.1436°
True anomaly
62.96924°
Mean anomaly
62.4823°
Eccentric anomaly
62.72564°
Mean motion
3.3541 °/min
Orbital period
107.33 mins
BSTAR
0.0019715
Loading maneuver chart data...
Computing Atmospheric mass density...
Loading historical data...
Loading historical data...
Loading historical data...
Loading historical data...
Loading historical data...
Loading historical data...
Loading historical data...

Documentation

Showing up to 5 results
|